THORAD AGENA D DEB, 4934

Orbit data source: Space-Track

THORAD AGENA D DEB, 4934 is space debris in SSO originally from a launch on Wed, 08 Apr 1970 UTC launched from the Air Force Western Test Range (AFWTR). Debris objects in space refer to the collection of defunct objects orbiting the Earth. Examples of debris include non-operational satellites, rocket bodies, and fragments generated from explosions, collisions, or faulty payload assembly.

Loading next visibility...
Identifier
4934, 1970-025GA
Orbit
SSO
Country
Flag of USUS
Related business
Manufacturer
Unknown
Mission
Spacecraft
Bus & Motor
Unknown
Mass
Unknown
Launch date (UTC)
1970-04-08 (56 years ago)
Launch vehicle
Unknown
Launch site
Air Force Western Test Range (AFWTR)
Object type
Payload
Rocket body
Debris
Shape & HBR
Unknown shape, 0.1 m
Radar Cross Section
Small (<0.1 m²)

Expand to show TLE details & history
Last TLE update: 17 hours ago

TLE from 17 hours ago
0 THORAD AGENA D DEB
1 04934U 70025GA  25292.28678185  .00001127  00000-0  12300-2 0  9998
2 04934 100.0047  41.4546 0006150  88.6182 329.7726 13.75055264763261
Epoch: 2025-10-19T06:52Z
TLE epoch observation values (Epoch: 2025-10-19T06:52:57.951Z)
Latitude
57.06687°
Longitude
-105.51217°
Altitude
987.042 km
Speed
7.366 km/s
True Right ascension
01h 42m 56s
True Declination
56° 54' 53"
Sunlit
Object was in full shadow at epoch
Visualization orbit readout
Latitude
Unknown
Longitude
Unknown
Altitude
Unknown
Speed
Unknown
Apparent Right ascension
Unknown
Apparent Declination
Unknown
Sunlit
N/A
Visualization observer readout
Local Sidereal Time
18:34:04
Azimuth
Unknown
Elevation
Unknown
Doppler factor
Unknown
Orbital elements
Apogee altitude
983.286 km
Perigee altitude
974.237 km
Semi-major axis
7,356.899 km
Eccentricity
0.00062
Inclination
100.0047°
RAAN
41.4546°
Arg. of periapsis
88.6182°
True anomaly
329.7371°
Mean anomaly
329.7726°
Eccentric anomaly
329.75485°
Mean motion
3.43955 °/min
Orbital period
104.67 mins
BSTAR
0.00123
Loading maneuver chart data...
Computing Atmospheric mass density...

Documentation

Showing up to 5 results
|